Regional Weather Roundup
Issued by NWS

Home | Current Version | Previous Version | Text Only | Print | Product List | Glossary Off
Versions: 1 2 3 4 5 6 7 8 9 10 11 12 13 14 15 16 17 18 19 20 21 22 23 24 25 26 27 28 29 30 31 32 33 34 35 36 37 38 39 40 41 42 43 44 45 46 47 48 49 50

000
ASUS43 KOAX 020210
RWRNE

WEATHER ROUNDUP FOR NEBRASKA
NATIONAL WEATHER SERVICE OMAHA NE
800 PM CST SUN MAR 01 2015

NOTES: SATELLITE DATA IS BEING USED TO AUGMENT CLOUD COVER ABOVE
       12000 FEET.
       "FAIR" INDICATES FEW OR NO CLOUDS BELOW 12,000 FEET WITH NO
       SIGNIFICANT WEATHER AND/OR OBSTRUCTIONS TO VISIBILITY.

  * THESE STATIONS DO NOT REPORT WEATHER SUCH AS RAIN...SNOW OR FOG.

NEZ001>004-019>022-054>056-020300-
NEBRASKA PANHANDLE

CITY           SKY/WX    TMP DP  RH WIND       PRES   REMARKS
SCOTTSBLUFF    PTCLDY    28  12  51 S5        30.25S WCI  23
ALLIANCE       PTCLDY    24  11  57 NE6       30.26R WCI  17
CHADRON        PTCLDY    25   7  46 NW5       30.29R WCI  19
KIMBALL        MOCLDY    26  19  72 S3        30.22S
SIDNEY         MOCLDY    26  16  65 S3        30.27R
$$

NEZ057>060-069>072-079>082-020300-
SOUTHWEST NEBRASKA

CITY           SKY/WX    TMP DP  RH WIND       PRES   REMARKS
NORTH PLATTE   CLEAR     22   9  57 CALM      30.32R
IMPERIAL         N/A     27  12  53 CALM      30.31R
LEXINGTON      PTCLDY    29  11  47 CALM      30.34R
MCCOOK         CLOUDY    33  10  38 SE5       30.33S WCI  29
OGALLALA       PTCLDY    26  11  53 CALM      30.31R
$$

NEZ005>010-023>029-035>040-094-020300-
NORTH CENTRAL NEBRASKA

CITY           SKY/WX    TMP DP  RH WIND       PRES   REMARKS
VALENTINE      PTCLDY    25   8  48 N8        30.34R WCI  16
AINSWORTH      PTCLDY    19   8  62 N6        30.35R WCI  11
BROKEN BOW     CLEAR     22   7  52 N7        30.34R WCI  13
O`NEILL        PTCLDY    24   7  48 N5        30.37S WCI  18
ORD            CLEAR     24   7  48 N5        30.36R WCI  18
THEDFORD       PTCLDY    26   9  50 NE3       30.33R
$$

NEZ041-046>049-061>064-073>077-083>087-020300-
SOUTH CENTRAL NEBRASKA

CITY           SKY/WX    TMP DP  RH WIND       PRES   REMARKS
GRAND ISLAND   CLEAR     25  13  60 CALM      30.38R
AURORA         PTCLDY    28  12  50 N3        30.38R
HASTINGS       PTCLDY    30  12  47 CALM      30.37R
HEBRON         MOCLDY    29  16  57 CALM      30.40R
HOLDREGE       PTCLDY    28   9  44 CALM      30.35R
KEARNEY *      PTCLDY    27   9  46 E5        30.36R WCI  21
YORK           PTCLDY    27  14  59 NW3       30.39R
$$

NEZ011>018-030>034-042>045-020300-
NORTHEAST NEBRASKA

CITY           SKY/WX    TMP DP  RH WIND       PRES   REMARKS
NORFOLK        PTCLDY    28   9  44 NW3       30.38R
ALBION         PTCLDY    25   7  46 CALM      30.38R
BLAIR          CLEAR     32  15  49 NW7       30.38R WCI  25
COLUMBUS *     CLEAR     25   7  46 CALM      30.40R
FREMONT        FAIR      29  17  60 CALM      30.40R
TEKAMAH        CLEAR     26  14  60 NW8       30.40R WCI  18
WAYNE          CLEAR     24   8  51 NW7       30.39R WCI  16
$$

NEZ050>053-065>068-078-088>093-020300-
SOUTHEAST NEBRASKA

CITY           SKY/WX    TMP DP  RH WIND       PRES   REMARKS
LINCOLN        PTCLDY    31  16  54 CALM      30.41R
OMAHA EPPLEY   PTCLDY    30  18  60 N3        30.40R
BEATRICE       MOCLDY    28  17  64 CALM      30.40R
FALLS CITY     CLOUDY    31  17  56 CALM      30.42R
NEBRASKA CITY  PTCLDY    32  12  43 SW3       30.39F
PLATTSMOUTH    PTCLDY    32  13  44 NW3       30.38F
$$

NEZ044-045-051>053-067-020300-
OMAHA AREA

CITY           SKY/WX    TMP DP  RH WIND       PRES   REMARKS
OMAHA EPPLEY   PTCLDY    30  18  60 N3        30.40R
BLAIR          CLEAR     32  15  49 NW7       30.38R WCI  25
FREMONT        FAIR      29  17  60 CALM      30.40R
MILLARD        FAIR      30  17  57 CALM      30.39F
OFFUTT AFB     CLEAR     23  16  73 NW2       30.39S
PLATTSMOUTH    PTCLDY    32  13  44 NW3       30.38F
WAHOO          FAIR      30  14  51 NW5       30.39S WCI  25
$$


USA.gov is the U.S. government's official web portal to all federal, state and local government web resources and services.